sat.trackr.live / text

‹ back to catalog

STARLINK-32495

NORAD 62052 · 2024-216W

PAYLOAD ACTIVE UNKNOWN

§ Identity

Operator
Country
US
Launch date
2024-11-21
Launch site
AFETR
Launch vehicle
Mass (kg)
RCS (m²)

Purposes: comms

External: N2YO · Heavens-Above · Gunter

§ Orbital elements

Epoch: 2026-05-25T03:55:20.407296Z

Period
94.27 min
Inclination
42.9980°
Eccentricity
0.0000379
Mean motion
15.27574978 rev/d
Perigee alt
482.8 km
Apogee alt
483.3 km
Semi-major
6,861.2 km
B*
5.5692e-4
RAAN
191.1544°
Arg perigee
344.9146°
Mean anomaly
15.1695°
Rev number
8,549

§ Raw data

STARLINK-324951 62052U 24216W   26145.16343064  .00015092  00000+0  55692-3 0  99912 62052  42.9980 191.1544 0000379 344.9146  15.1695 15.27574978 85492

JSON: /api/v1/satellites/62052 · /tle

For live sub-satellite position, see the globe view (requires WebGL).

§ Visibility from observer

Set your observer location to see the next 7 days of passes ≥ 10°. The values pass through the URL so the page stays shareable.

No JS? Fill the form by hand. The geolocation button needs JavaScript.